Time,TemperatureF,DewpointF,PressureIn,WindDirection,WindDirectionDegrees,WindSpeedMPH,WindSpeedGustMPH,Humidity,HourlyPrecipIn,Conditions,Clouds,dailyrainin,SoftwareType,DateUTC
2013-04-28 00:01:00,50.0,28.0,-100.00,SW,226,15.0,17.0,41,0.00,,,-99.99,,2013-04-28 06:01:00,
2013-04-28 00:12:00,50.0,29.0,-100.00,SW,227,17.0,19.0,44,0.00,,,-99.99,,2013-04-28 06:12:00,
2013-04-28 00:21:00,50.0,29.0,-100.00,SW,227,14.0,15.0,45,0.00,,,-99.99,,2013-04-28 06:21:00,
2013-04-28 00:32:00,50.0,29.0,-100.00,SW,227,14.0,15.0,45,0.00,,,-99.99,,2013-04-28 06:32:00,
2013-04-28 00:52:00,48.0,31.0,-100.00,SSW,208,8.0,9.0,51,0.00,,,-99.99,,2013-04-28 06:52:00,
2013-04-28 01:01:00,48.0,31.0,-100.00,SSW,208,8.0,9.0,51,0.00,,,-99.99,,2013-04-28 07:01:00,
2013-04-28 01:11:00,48.0,31.0,-100.00,SSW,206,8.0,10.0,51,0.00,,,-99.99,,2013-04-28 07:11:00,
2013-04-28 01:21:00,48.0,30.0,-100.00,SSW,206,8.0,10.0,49,0.00,,,-99.99,,2013-04-28 07:21:00,
2013-04-28 01:31:00,48.0,30.0,-100.00,SSW,206,8.0,10.0,49,0.00,,,-99.99,,2013-04-28 07:31:00,
2013-04-28 01:42:00,48.0,31.0,-100.00,SSW,205,6.0,9.0,52,0.00,,,-99.99,,2013-04-28 07:42:00,
2013-04-28 01:52:00,48.0,31.0,-100.00,SSW,205,6.0,9.0,52,0.00,,,-99.99,,2013-04-28 07:52:00,
2013-04-28 02:11:00,48.0,30.0,-100.00,SW,216,9.0,11.0,49,0.00,,,-99.99,,2013-04-28 08:11:00,
2013-04-28 02:21:00,49.0,29.0,-100.00,SSW,208,7.0,10.0,47,0.00,,,-99.99,,2013-04-28 08:21:00,
2013-04-28 02:32:00,49.0,29.0,-100.00,SSW,208,7.0,10.0,47,0.00,,,-99.99,,2013-04-28 08:32:00,
2013-04-28 02:42:00,49.0,30.0,-100.00,SW,223,12.0,13.0,47,0.00,,,-99.99,,2013-04-28 08:42:00,
2013-04-28 02:52:00,49.0,30.0,-100.00,SW,223,12.0,13.0,47,0.00,,,-99.99,,2013-04-28 08:52:00,
2013-04-28 03:01:00,49.0,30.0,-100.00,SW,223,12.0,13.0,47,0.00,,,-99.99,,2013-04-28 09:01:00,
2013-04-28 03:11:00,48.0,29.0,-100.00,SW,232,13.0,14.0,47,0.00,,,-99.99,,2013-04-28 09:11:00,
2013-04-28 03:21:00,51.0,28.0,-100.00,SW,222,12.0,13.0,41,0.00,,,-99.99,,2013-04-28 09:21:00,
2013-04-28 03:32:00,51.0,28.0,-100.00,SW,222,12.0,13.0,41,0.00,,,-99.99,,2013-04-28 09:32:00,
2013-04-28 03:42:00,49.0,28.0,-100.00,SW,227,14.0,14.0,44,0.00,,,-99.99,,2013-04-28 09:42:00,
2013-04-28 03:53:00,49.0,29.0,-100.00,SW,216,10.0,12.0,46,0.00,,,-99.99,,2013-04-28 09:53:00,
2013-04-28 04:02:00,49.0,29.0,-100.00,SW,216,10.0,12.0,46,0.00,,,-99.99,,2013-04-28 10:02:00,
2013-04-28 04:12:00,45.0,30.0,-100.00,SSW,200,8.0,10.0,54,0.00,,,-99.99,,2013-04-28 10:12:00,
2013-04-28 04:22:00,46.0,29.0,-100.00,SSW,206,8.0,10.0,52,0.00,,,-99.99,,2013-04-28 10:22:00,
2013-04-28 04:32:00,46.0,29.0,-100.00,SSW,206,8.0,10.0,52,0.00,,,-99.99,,2013-04-28 10:32:00,
2013-04-28 04:42:00,44.0,31.0,-100.00,SSW,200,6.0,9.0,59,0.00,,,-99.99,,2013-04-28 10:42:00,
2013-04-28 04:52:00,44.0,31.0,-100.00,SSW,198,6.0,8.0,59,0.00,,,-99.99,,2013-04-28 10:52:00,
2013-04-28 05:02:00,44.0,31.0,-100.00,SSW,198,6.0,8.0,59,0.00,,,-99.99,,2013-04-28 11:02:00,
2013-04-28 05:11:00,44.0,31.0,-100.00,SSW,198,6.0,8.0,59,0.00,,,-99.99,,2013-04-28 11:11:00,
2013-04-28 05:21:00,45.0,31.0,-100.00,South,191,4.0,6.0,58,0.00,,,-99.99,,2013-04-28 11:21:00,
2013-04-28 05:32:00,45.0,31.0,-100.00,South,191,4.0,6.0,58,0.00,,,-99.99,,2013-04-28 11:32:00,
2013-04-28 05:42:00,42.0,31.0,-100.00,SSW,210,4.0,5.0,64,0.00,,,-99.99,,2013-04-28 11:42:00,
2013-04-28 05:52:00,42.0,32.0,-100.00,SSW,193,5.0,7.0,65,0.00,,,-99.99,,2013-04-28 11:52:00,
2013-04-28 06:01:00,42.0,32.0,-100.00,SSW,193,5.0,7.0,65,0.00,,,-99.99,,2013-04-28 12:01:00,
2013-04-28 06:11:00,43.0,31.0,-100.00,SSW,202,6.0,8.0,63,0.00,,,-99.99,,2013-04-28 12:11:00,
2013-04-28 06:21:00,45.0,31.0,-100.00,SSW,202,7.0,9.0,58,0.00,,,-99.99,,2013-04-28 12:21:00,
2013-04-28 06:32:00,45.0,31.0,-100.00,SSW,202,7.0,9.0,58,0.00,,,-99.99,,2013-04-28 12:32:00,
2013-04-28 06:42:00,45.0,31.0,-100.00,SSW,202,7.0,9.0,58,0.00,,,-99.99,,2013-04-28 12:42:00,
2013-04-28 06:52:00,45.0,31.0,-100.00,SW,220,9.0,10.0,56,0.00,,,-99.99,,2013-04-28 12:52:00,
2013-04-28 07:01:00,45.0,31.0,-100.00,SW,220,9.0,10.0,56,0.00,,,-99.99,,2013-04-28 13:01:00,
2013-04-28 07:11:00,45.0,31.0,-100.00,SW,220,9.0,10.0,56,0.00,,,-99.99,,2013-04-28 13:11:00,
2013-04-28 07:21:00,46.0,30.0,-100.00,SW,233,8.0,10.0,53,0.00,,,-99.99,,2013-04-28 13:21:00,
2013-04-28 07:31:00,46.0,30.0,-100.00,SW,233,8.0,10.0,53,0.00,,,-99.99,,2013-04-28 13:31:00,
2013-04-28 07:42:00,48.0,30.0,-100.00,SSW,213,9.0,13.0,50,0.00,,,-99.99,,2013-04-28 13:42:00,
2013-04-28 07:52:00,46.0,32.0,-100.00,South,178,7.0,9.0,59,0.00,,,-99.99,,2013-04-28 13:52:00,
2013-04-28 08:01:00,46.0,32.0,-100.00,South,178,7.0,9.0,59,0.00,,,-99.99,,2013-04-28 14:01:00,
2013-04-28 08:11:00,46.0,32.0,-100.00,South,191,9.0,11.0,58,0.00,,,-99.99,,2013-04-28 14:11:00,
2013-04-28 08:21:00,46.0,32.0,-100.00,South,191,9.0,11.0,58,0.00,,,-99.99,,2013-04-28 14:21:00,
2013-04-28 08:31:00,46.0,32.0,-100.00,South,191,9.0,11.0,58,0.00,,,-99.99,,2013-04-28 14:31:00,
2013-04-28 08:41:00,47.0,32.0,-100.00,SSW,213,11.0,13.0,55,0.00,,,-99.99,,2013-04-28 14:41:00,
2013-04-28 08:52:00,48.0,32.0,-100.00,SW,224,17.0,20.0,55,0.00,,,-99.99,,2013-04-28 14:52:00,
2013-04-28 09:01:00,48.0,32.0,-100.00,SW,224,17.0,20.0,55,0.00,,,-99.99,,2013-04-28 15:01:00,
2013-04-28 09:12:00,48.0,33.0,-100.00,SW,224,17.0,20.0,55,0.00,,,-99.99,,2013-04-28 15:12:00,
2013-04-28 09:21:00,49.0,32.0,-100.00,SW,219,13.0,21.0,53,0.00,,,-99.99,,2013-04-28 15:21:00,
2013-04-28 09:32:00,49.0,32.0,-100.00,SW,219,13.0,21.0,53,0.00,,,-99.99,,2013-04-28 15:32:00,
2013-04-28 09:42:00,49.0,32.0,-100.00,SW,219,13.0,21.0,53,0.00,,,-99.99,,2013-04-28 15:42:00,
2013-04-28 09:53:00,49.0,32.0,-100.00,SW,222,20.0,25.0,52,0.00,,,-99.99,,2013-04-28 15:53:00,
2013-04-28 10:03:00,49.0,32.0,-100.00,SW,222,20.0,25.0,52,0.00,,,-99.99,,2013-04-28 16:03:00,
2013-04-28 10:13:00,52.0,32.0,-100.00,SSW,206,16.0,20.0,48,0.00,,,-99.99,,2013-04-28 16:13:00,
2013-04-28 10:23:00,54.0,33.0,-100.00,SSW,210,16.0,19.0,46,0.00,,,-99.99,,2013-04-28 16:23:00,
2013-04-28 10:32:00,54.0,33.0,-100.00,SSW,210,16.0,19.0,46,0.00,,,-99.99,,2013-04-28 16:32:00,
2013-04-28 10:42:00,56.0,31.0,-100.00,SW,223,24.0,28.0,38,0.00,,,-99.99,,2013-04-28 16:42:00,
2013-04-28 10:52:00,56.0,31.0,-100.00,SW,223,24.0,28.0,38,0.00,,,-99.99,,2013-04-28 16:52:00,
2013-04-28 11:02:00,56.0,31.0,-100.00,SW,223,24.0,28.0,38,0.00,,,-99.99,,2013-04-28 17:02:00,
2013-04-28 11:12:00,57.0,31.0,-100.00,SW,227,26.0,30.0,37,0.00,,,-99.99,,2013-04-28 17:12:00,
2013-04-28 11:21:00,57.0,31.0,-100.00,SSW,206,12.0,15.0,37,0.00,,,-99.99,,2013-04-28 17:21:00,
2013-04-28 11:32:00,57.0,31.0,-100.00,SSW,206,12.0,15.0,37,0.00,,,-99.99,,2013-04-28 17:32:00,
2013-04-28 11:43:00,59.0,27.0,-100.00,SW,230,24.0,27.0,28,0.00,,,-99.99,,2013-04-28 17:43:00,
2013-04-28 11:52:00,59.0,27.0,-100.00,SW,230,24.0,27.0,28,0.00,,,-99.99,,2013-04-28 17:52:00,
2013-04-28 12:01:00,59.0,27.0,-100.00,SW,230,24.0,27.0,28,0.00,,,-99.99,,2013-04-28 18:01:00,
2013-04-28 12:12:00,60.0,24.0,-100.00,SW,234,25.0,29.0,25,0.00,,,-99.99,,2013-04-28 18:12:00,
2013-04-28 12:22:00,60.0,24.0,-100.00,SW,234,25.0,29.0,25,0.00,,,-99.99,,2013-04-28 18:22:00,
2013-04-28 12:32:00,60.0,24.0,-100.00,SW,234,25.0,29.0,25,0.00,,,-99.99,,2013-04-28 18:32:00,
2013-04-28 12:42:00,62.0,22.0,-100.00,WSW,247,29.0,35.0,21,0.00,,,-99.99,,2013-04-28 18:42:00,
2013-04-28 12:52:00,62.0,22.0,-100.00,WSW,247,29.0,35.0,21,0.00,,,-99.99,,2013-04-28 18:52:00,
2013-04-28 13:02:00,62.0,22.0,-100.00,WSW,247,29.0,35.0,21,0.00,,,-99.99,,2013-04-28 19:02:00,
2013-04-28 13:11:00,63.0,24.0,-100.00,WSW,248,21.0,29.0,23,0.00,,,-99.99,,2013-04-28 19:11:00,
2013-04-28 13:21:00,63.0,26.0,-100.00,WSW,246,18.0,32.0,24,0.00,,,-99.99,,2013-04-28 19:21:00,
2013-04-28 13:31:00,63.0,26.0,-100.00,WSW,246,18.0,32.0,24,0.00,,,-99.99,,2013-04-28 19:31:00,
2013-04-28 13:41:00,63.0,26.0,-100.00,WSW,240,23.0,30.0,24,0.00,,,-99.99,,2013-04-28 19:41:00,
2013-04-28 13:52:00,63.0,27.0,-100.00,WSW,243,28.0,33.0,25,0.00,,,-99.99,,2013-04-28 19:52:00,
2013-04-28 14:01:00,63.0,27.0,-100.00,WSW,243,28.0,33.0,25,0.00,,,-99.99,,2013-04-28 20:01:00,
2013-04-28 14:11:00,62.0,27.0,-100.00,SW,230,30.0,33.0,27,0.00,,,-99.99,,2013-04-28 20:11:00,
2013-04-28 14:22:00,62.0,27.0,-100.00,SW,230,30.0,33.0,27,0.00,,,-99.99,,2013-04-28 20:22:00,
2013-04-28 14:32:00,62.0,27.0,-100.00,SW,230,30.0,33.0,27,0.00,,,-99.99,,2013-04-28 20:32:00,
2013-04-28 14:41:00,64.0,27.0,-100.00,SW,236,24.0,29.0,25,0.00,,,-99.99,,2013-04-28 20:41:00,
2013-04-28 14:52:00,64.0,27.0,-100.00,WSW,244,28.0,32.0,24,0.00,,,-99.99,,2013-04-28 20:52:00,
2013-04-28 15:01:00,64.0,27.0,-100.00,WSW,244,28.0,32.0,24,0.00,,,-99.99,,2013-04-28 21:01:00,
2013-04-28 15:11:00,63.0,28.0,-100.00,SW,233,31.0,36.0,26,0.00,,,-99.99,,2013-04-28 21:11:00,
2013-04-28 15:21:00,63.0,28.0,-100.00,SW,233,31.0,36.0,26,0.00,,,-99.99,,2013-04-28 21:21:00,
2013-04-28 15:32:00,63.0,28.0,-100.00,SW,233,31.0,36.0,26,0.00,,,-99.99,,2013-04-28 21:32:00,
2013-04-28 15:42:00,65.0,28.0,-100.00,WSW,243,24.0,30.0,24,0.00,,,-99.99,,2013-04-28 21:42:00,
2013-04-28 15:53:00,65.0,30.0,-100.00,SW,232,32.0,36.0,27,0.00,,,-99.99,,2013-04-28 21:53:00,
2013-04-28 16:02:00,65.0,30.0,-100.00,SW,232,32.0,36.0,27,0.00,,,-99.99,,2013-04-28 22:02:00,
2013-04-28 16:12:00,65.0,28.0,-100.00,SW,234,31.0,39.0,24,0.00,,,-99.99,,2013-04-28 22:12:00,
2013-04-28 16:22:00,65.0,28.0,-100.00,SW,234,31.0,39.0,24,0.00,,,-99.99,,2013-04-28 22:22:00,
2013-04-28 16:33:00,65.0,28.0,-100.00,SW,234,31.0,39.0,24,0.00,,,-99.99,,2013-04-28 22:33:00,
2013-04-28 16:42:00,66.0,28.0,-100.00,SW,236,27.0,33.0,24,0.00,,,-99.99,,2013-04-28 22:42:00,
2013-04-28 16:52:00,67.0,27.0,-100.00,WSW,248,26.0,32.0,22,0.00,,,-99.99,,2013-04-28 22:52:00,
2013-04-28 17:02:00,67.0,27.0,-100.00,WSW,248,26.0,32.0,22,0.00,,,-99.99,,2013-04-28 23:02:00,
2013-04-28 17:12:00,66.0,27.0,-100.00,WSW,237,32.0,38.0,23,0.00,,,-99.99,,2013-04-28 23:12:00,
2013-04-28 17:21:00,66.0,27.0,-100.00,WSW,237,32.0,38.0,23,0.00,,,-99.99,,2013-04-28 23:21:00,
2013-04-28 17:32:00,66.0,27.0,-100.00,WSW,237,32.0,38.0,23,0.00,,,-99.99,,2013-04-28 23:32:00,
2013-04-28 17:41:00,65.0,27.0,-100.00,WSW,237,30.0,37.0,23,0.00,,,-99.99,,2013-04-28 23:41:00,
2013-04-28 17:52:00,65.0,27.0,-100.00,WSW,237,30.0,37.0,23,0.00,,,-99.99,,2013-04-28 23:52:00,
2013-04-28 18:01:00,65.0,27.0,-100.00,WSW,237,30.0,37.0,23,0.00,,,-99.99,,2013-04-29 00:01:00,
2013-04-28 18:11:00,65.0,29.0,-100.00,WSW,243,30.0,36.0,25,0.00,,,-99.99,,2013-04-29 00:11:00,
2013-04-28 18:22:00,65.0,28.0,-100.00,WSW,243,31.0,38.0,24,0.00,,,-99.99,,2013-04-29 00:22:00,
2013-04-28 18:32:00,65.0,28.0,-100.00,WSW,243,31.0,38.0,24,0.00,,,-99.99,,2013-04-29 00:32:00,
2013-04-28 18:41:00,64.0,27.0,-100.00,WSW,237,30.0,44.0,25,0.00,,,-99.99,,2013-04-29 00:41:00,
2013-04-28 18:52:00,64.0,27.0,-100.00,WSW,237,30.0,44.0,25,0.00,,,-99.99,,2013-04-29 00:52:00,
2013-04-28 19:01:00,64.0,27.0,-100.00,WSW,237,30.0,44.0,25,0.00,,,-99.99,,2013-04-29 01:01:00,
2013-04-28 19:12:00,64.0,26.0,-100.00,SW,232,34.0,40.0,24,0.00,,,-99.99,,2013-04-29 01:12:00,
2013-04-28 19:21:00,62.0,26.0,-100.00,WSW,243,34.0,40.0,25,0.00,,,-99.99,,2013-04-29 01:21:00,
2013-04-28 19:32:00,62.0,26.0,-100.00,WSW,243,34.0,40.0,25,0.00,,,-99.99,,2013-04-29 01:32:00,
2013-04-28 19:42:00,62.0,26.0,-100.00,WSW,239,35.0,40.0,26,0.00,,,-99.99,,2013-04-29 01:42:00,
2013-04-28 19:52:00,62.0,25.0,-100.00,SW,233,36.0,40.0,25,0.00,,,-99.99,,2013-04-29 01:52:00,
2013-04-28 20:01:00,62.0,25.0,-100.00,SW,233,36.0,40.0,25,0.00,,,-99.99,,2013-04-29 02:01:00,
2013-04-28 20:11:00,62.0,25.0,-100.00,SW,233,36.0,40.0,25,0.00,,,-99.99,,2013-04-29 02:11:00,
2013-04-28 20:21:00,60.0,21.0,-100.00,WSW,241,32.0,39.0,23,0.00,,,-99.99,,2013-04-29 02:21:00,
2013-04-28 20:31:00,60.0,21.0,-100.00,WSW,241,32.0,39.0,23,0.00,,,-99.99,,2013-04-29 02:31:00,
2013-04-28 20:42:00,59.0,19.0,-100.00,WSW,241,27.0,34.0,21,0.00,,,-99.99,,2013-04-29 02:42:00,
2013-04-28 20:52:00,57.0,18.0,-100.00,WSW,244,21.0,26.0,21,0.00,,,-99.99,,2013-04-29 02:52:00,
2013-04-28 21:01:00,57.0,18.0,-100.00,WSW,244,21.0,26.0,21,0.00,,,-99.99,,2013-04-29 03:01:00,
2013-04-28 21:12:00,56.0,18.0,-100.00,WSW,240,21.0,24.0,22,0.00,,,-99.99,,2013-04-29 03:12:00,
2013-04-28 21:21:00,56.0,18.0,-100.00,WSW,240,21.0,24.0,22,0.00,,,-99.99,,2013-04-29 03:21:00,
2013-04-28 21:32:00,56.0,18.0,-100.00,WSW,240,21.0,24.0,22,0.00,,,-99.99,,2013-04-29 03:32:00,
2013-04-28 21:42:00,55.0,20.0,-100.00,WSW,248,18.0,24.0,26,0.00,,,-99.99,,2013-04-29 03:42:00,
2013-04-28 21:53:00,55.0,20.0,-100.00,WSW,248,19.0,25.0,26,0.00,,,-99.99,,2013-04-29 03:53:00,
2013-04-28 22:02:00,55.0,20.0,-100.00,WSW,248,19.0,25.0,26,0.00,,,-99.99,,2013-04-29 04:02:00,
2013-04-28 22:12:00,55.0,20.0,-100.00,WSW,251,19.0,23.0,25,0.00,,,-99.99,,2013-04-29 04:12:00,
2013-04-28 22:23:00,55.0,20.0,-100.00,WSW,251,19.0,23.0,25,0.00,,,-99.99,,2013-04-29 04:23:00,
2013-04-28 22:32:00,55.0,20.0,-100.00,WSW,251,19.0,23.0,25,0.00,,,-99.99,,2013-04-29 04:32:00,
2013-04-28 22:43:00,54.0,20.0,-100.00,WSW,250,17.0,21.0,26,0.00,,,-99.99,,2013-04-29 04:43:00,
2013-04-28 22:52:00,54.0,21.0,-100.00,WSW,251,17.0,20.0,28,0.00,,,-99.99,,2013-04-29 04:52:00,
2013-04-28 23:02:00,54.0,21.0,-100.00,WSW,251,17.0,20.0,28,0.00,,,-99.99,,2013-04-29 05:02:00,
2013-04-28 23:12:00,53.0,21.0,-100.00,WSW,256,16.0,20.0,28,0.00,,,-99.99,,2013-04-29 05:12:00,
2013-04-28 23:22:00,53.0,21.0,-100.00,WSW,256,16.0,20.0,28,0.00,,,-99.99,,2013-04-29 05:22:00,
2013-04-28 23:32:00,53.0,21.0,-100.00,WSW,256,16.0,20.0,28,0.00,,,-99.99,,2013-04-29 05:32:00,
2013-04-28 23:42:00,52.0,22.0,-100.00,WSW,251,15.0,19.0,30,0.00,,,-99.99,,2013-04-29 05:42:00,
2013-04-28 23:52:00,51.0,22.0,-100.00,WSW,251,13.0,16.0,32,0.00,,,-99.99,,2013-04-29 05:52:00,